map of AZR home
Great Circle Mapper logo
AZR - Airport
Location
City:  Adrar, Adrar, Algeria
Name:Touat-Cheikh Sidi Mohamed Belkebir Airport
ICAO:DAUA
IATA:AZR

Details
Type:Airport (Aerodrome, Airfield)
Use:Public/Civil, International (customs port of entry)
Latitude:2750'21"N (27.839167)
Longitude:011'07"W (-0.185277)
Elevation:919 ft (280 m)
Variation:0.21W (WMM2015 magnetic declination)
0.09 annual change
Runways:1
Longest:9843 × 148 ft (3000 × 45 m)

Time
Time Zone:UTC+1
Local Time:

Weather
METAR:DAUA 270700Z 10017KT CAVOK 30/04 Q1015
TAF:DAUA 270500Z 2706/2806 09015KT 8000 NSC
TEMPO 2712/2720 05015G25KT 4000 DRSA PROB40
TEMPO 2714/2720 04020G30KT 1000 BLSA

Related Locations
Nearby:
Farthest:ONU: 11927 mi / 19194 km
Ono-I-Lau, FJ

Find:

   beyond  
but within

Other Information
Maps:
NOTAMs:
Links:
Sources:

  
flag of Algeria   

Sectional Chart

Flight Planning
at skyvector.com

Satellite Image

Google Maps Satellite view

 

Copyright © 2004-2016 Karl L. Swartz. All rights reserved.
The Great Circle Mapper name and logo are trademarks of the Great Circle Mapper.
All other trademarks mentioned herein belong to their respective owners.
Please see credits for attibutions and further copyright information.

  Follow gcmap on Facebook Follow gcmap on Twitter Follow gcmap on Google+ GCmap on LinkedIn

hCard Microformat

Geo Microformat